Overview Statistics Trail Chart Weather Telemetry Raw packets
 

This is the latest recevied weather packets stored in our database for station/object N6ZHV-13. If no packets are shown the sender has not sent any weather packets the latest 10 day(s).

<< 57 58 59 60 61 62 63 >>
Time Temp. Humidity Pressure Rain* Wind** Luminosity Snow
1788303138 26.11° C 48% 1010.2 hPa 0 mm - - -
1788302826 26.11° C 48% 1010.3 hPa 0 mm - - -
1788302526 26.67° C 49% 1010.3 hPa 0 mm - - -
1788302226 26.11° C 50% 1010.2 hPa 0 mm - - -
1788301926 26.11° C 48% 1010.3 hPa 0 mm - - -
1788301626 26.11° C 50% 1010.4 hPa 0 mm - - -
1788301326 26.11° C 51% 1010.3 hPa 0 mm - - -
1788301026 26.11° C 49% 1010.5 hPa 0 mm - - -
1788300726 26.11° C 47% 1010.5 hPa 0 mm - - -
1788300426 26.11° C 49% 1010.6 hPa 0 mm - - -
1788300126 26.11° C 50% 1010.6 hPa 0 mm - - -
1788299826 26.11° C 50% 1010.6 hPa 0 mm - - -
1788299527 26.11° C 48% 1010.7 hPa 0 mm - - -
1788299227 26.11° C 49% 1010.7 hPa 0 mm - - -
1788298927 26.11° C 53% 1010.7 hPa 0 mm - - -
1788298627 26.11° C 53% 1010.7 hPa 0 mm - - -
1788298327 26.11° C 54% 1010.6 hPa 0 mm - - -
1788298027 26.11° C 53% 1010.6 hPa 0 mm - - -
1788297727 25.56° C 54% 1010.7 hPa 0 mm - - -
1788297427 26.11° C 55% 1010.7 hPa 0 mm - - -
1788297127 26.11° C 55% 1010.7 hPa 0 mm - - -
1788296827 26.11° C 56% 1010.7 hPa 0 mm - - -
1788296527 26.11° C 55% 1010.7 hPa 0 mm - - -
1788296227 26.67° C 53% 1010.8 hPa 0 mm - - -
1788295927 26.67° C 55% 1010.8 hPa 0 mm - - -

* Rain latest hour (hover to see other rain measurements)
** Current wind speed in m/s (hover to see current wind gust speed)